Temperature
20 18 17 18 18 19 19 18 18 19 20 19 18 18 18 19 18 18 18 19 19 19 19 19 18 18 18 18 18 17 17 17 17 16 16 16 16 15 15 15 15 15 15 15
18 18 19 20 20 19 19 18 18 19 20 19 18 18 18 18 18 19 19 19 19 18 19 18 18 18 18 18 18 17 17 17 17 16 16 16 16 15 15 15 15 15 15 15
19 20 21 21 20 20 19 19 19 19 19 19 19 18 18 18 19 19 19 19 19 19 19 18 18 18 18 18 18 17 17 17 17 16 16 16 16 15 15 15 15 15 15 15
20 21 21 21 20 20 19 20 20 19 18 17 18 17 17 17 18 18 18 18 18 19 19 18 18 18 18 18 18 17 17 17 17 16 16 16 16 16 15 15 15 15 15 15
20 20 20 20 21 21 20 20 20 19 18 17 18 17 17 17 17 17 18 18 18 19 19 19 19 18 18 18 18 17 17 17 17 16 16 16 16 16 15 15 15 15 15 15
20 21 21 21 21 21 20 20 19 17 16 17 17 17 17 16 17 18 18 18 18 18 19 18 18 18 18 18 18 17 17 17 17 16 16 16 16 16 16 16 15 15 15 15
20 21 21 21 20 20 19 17 17 17 16 16 17 18 17 18 18 19 18 18 18 18 18 18 18 18 18 18 17 17 17 17 17 16 16 16 16 16 16 16 15 15 15 15
19 19 20 21 20 19 19 17 17 17 16 17 18 18 18 19 20 20 19 19 18 18 18 18 18 18 18 18 17 17 17 17 17 17 16 16 16 16 16 16 15 15 15 15
18 19 21 21 21 20 19 17 17 16 17 17 17 18 18 19 19 19 19 18 18 18 18 18 18 18 18 18 18 17 17 17 17 17 16 16 16 16 16 15 15 15 15 15
19 19 20 21 21 20 19 18 16 17 17 17 17 18 17 18 18 18 18 18 18 18 18 18 18 18 18 18 17 17 17 17 17 16 16 16 16 16 16 15 15 15 15 15
19 18 19 20 20 19 19 19 17 16 16 16 17 17 19 18 18 18 18 18 18 18 18 18 18 18 18 18 17 17 17 17 16 16 16 16 16 16 15 15 15 15 15 15
19 17 17 19 20 20 19 19 17 17 17 16 16 17 20 19 19 19 18 18 18 19 19 18 18 18 17 17 17 17 17 17 16 16 16 16 16 16 15 15 15 15 15 14
19 17 17 18 19 20 20 19 18 17 16 16 16 18 19 19 19 19 19 19 18 18 18 18 18 18 17 17 17 17 17 17 16 16 16 16 16 15 15 15 15 15 15 14
19 17 17 18 18 19 19 20 19 18 16 17 17 18 18 18 18 18 19 19 18 18 18 18 18 18 17 17 17 17 17 17 16 16 16 16 16 15 15 15 15 14 14 14
19 18 18 19 20 20 20 20 20 19 18 17 18 18 19 18 18 19 19 19 18 18 18 18 18 18 17 17 17 17 17 16 16 16 16 16 15 15 15 15 14 14 14 14
18 18 19 19 20 20 20 20 20 19 19 19 19 19 19 19 19 19 18 18 18 18 18 18 18 18 17 17 17 17 17 16 16 16 16 15 15 15 15 14 14 14 14 14
17 18 18 18 19 20 19 20 20 20 20 19 19 19 19 18 18 18 18 18 18 18 18 18 18 18 18 17 17 17 17 16 16 16 16 15 15 15 14 14 14 14 14 13
17 17 16 17 18 18 19 20 20 20 20 20 20 19 19 19 19 19 19 19 19 19 18 18 18 18 18 18 17 17 17 16 16 16 15 15 15 15 14 14 14 13 13 13
17 17 16 16 17 18 20 21 21 20 20 19 19 19 19 19 18 18 19 19 19 19 19 19 18 18 18 18 17 17 16 16 16 16 15 15 15 14 14 14 13 13 13 13
16 16 16 16 17 18 19 20 21 20 19 19 19 18 18 18 16 16 18 19 19 19 19 19 18 18 18 17 17 17 16 16 16 16 15 15 15 14 14 14 13 13 13 13
17 16 16 16 16 17 19 20 21 19 19 20 20 19 19 18 18 19 19 19 19 19 18 18 18 18 18 17 17 17 16 16 16 16 15 15 14 14 14 13 13 13 12 12
16 16 15 15 16 17 19 20 19 19 20 20 20 20 20 19 19 19 19 18 18 18 18 18 18 18 17 17 17 17 16 16 16 15 15 15 14 14 13 13 13 12 12 12
16 16 15 16 17 18 20 20 21 21 21 21 20 20 20 19 19 19 18 18 18 18 18 18 17 17 17 17 16 16 16 16 15 15 15 14 14 13 13 13 12 12 12 11
16 16 15 15 17 18 20 21 21 21 21 21 21 20 20 19 19 18 18 18 18 17 17 17 17 17 16 16 16 16 16 15 15 15 14 14 13 13 13 12 12 12 11 11
16 16 15 15 17 18 19 20 20 20 20 20 20 20 19 19 18 18 18 18 17 17 17 17 17 17 16 16 16 15 15 15 15 14 14 13 13 13 12 12 12 11 11 11
15 16 15 15 17 16 19 20 20 20 20 20 19 19 19 19 18 18 17 17 17 17 16 16 16 16 16 15 15 15 14 14 14 14 13 13 12 12 12 12 11 11 10 10
Wind_Speed
1 4 1 4 5 4 4 4 2 2 3 4 5 5 7 7 8 8 8 8 8 8 6 6 7 7 7 7 7 7 6 5 5 4 4 4 2 2 3 4 7 8 8 7
3 1 5 4 5 4 4 3 2 1 2 3 4 4 6 7 10 11 11 10 10 8 6 6 6 6 6 7 7 7 6 5 4 3 3 3 3 2 1 3 5 7 8 7
3 4 3 4 4 5 3 4 3 4 2 3 4 1 3 4 5 8 9 10 10 11 10 8 7 7 7 7 7 7 5 5 4 4 4 4 4 3 3 3 3 4 7 7
2 3 2 2 3 4 3 5 6 5 4 1 3 2 5 5 5 7 9 9 10 10 10 9 8 7 7 7 7 7 5 5 5 6 6 6 4 2 1 0 1 3 6 6
2 2 3 3 2 4 4 5 5 4 4 1 1 2 5 4 7 9 10 12 11 11 11 10 9 8 7 7 7 7 6 5 5 6 7 6 4 2 1 2 2 3 4 6
2 2 3 4 2 3 4 5 5 5 4 1 4 4 4 5 10 10 11 13 13 12 11 10 8 8 7 6 6 6 7 5 5 6 6 7 6 5 4 3 3 2 2 3
3 2 1 4 4 2 5 5 3 3 2 4 4 3 7 8 9 12 14 15 13 12 11 11 10 9 8 7 6 6 7 5 5 5 5 6 6 6 5 3 2 2 1 2
1 3 3 2 5 5 3 6 5 4 3 3 2 4 6 6 6 9 12 13 13 12 12 12 11 10 9 8 7 7 7 5 4 5 5 4 5 4 3 3 3 2 1 1
5 4 2 2 3 7 5 3 5 4 0 1 3 3 5 3 3 8 11 12 13 13 13 12 11 10 9 9 7 7 7 5 5 5 5 5 5 5 4 3 3 2 1 1
7 3 2 2 2 1 5 6 5 4 3 2 3 3 4 3 4 8 12 14 13 12 11 11 10 10 9 8 7 7 7 7 5 6 5 5 4 4 4 4 3 3 2 2
5 4 1 1 4 5 3 3 4 4 4 4 2 5 6 9 9 11 13 14 14 14 13 12 10 9 8 7 7 7 6 6 5 6 5 6 4 4 4 4 3 3 3 3
4 5 2 4 4 5 5 5 6 5 3 3 2 6 6 8 9 10 11 12 12 13 12 11 10 9 8 8 8 7 6 6 6 6 6 5 5 4 4 4 3 3 3 3
6 6 2 4 4 1 2 4 5 6 4 3 3 5 3 3 5 8 11 11 11 12 11 10 9 9 9 8 8 7 7 6 6 6 7 5 5 5 4 3 3 3 4 3
6 5 6 7 6 5 4 3 5 6 4 4 6 6 4 4 6 7 10 12 12 12 12 11 10 9 9 9 8 8 6 6 7 7 7 6 5 4 4 3 3 3 3 3
6 4 5 5 5 3 4 5 7 7 8 8 8 8 10 10 10 10 11 11 13 12 12 13 12 10 9 8 8 7 7 7 7 7 6 5 4 4 4 4 3 3 4 3
4 4 2 3 4 3 4 6 7 8 7 7 6 7 8 7 7 8 11 13 14 14 14 14 13 12 11 11 10 8 8 7 7 7 6 5 5 4 4 4 4 4 3 3
4 5 3 3 4 2 5 8 8 6 7 8 9 9 6 6 10 12 13 13 14 14 13 14 13 13 12 11 11 11 10 8 8 7 6 5 5 5 4 4 4 3 3 3
7 6 4 2 1 4 8 5 6 7 5 6 6 6 9 11 10 9 10 12 12 12 12 12 11 11 10 10 9 9 9 8 8 7 6 5 5 5 4 4 3 2 2 2
7 7 4 3 3 5 7 4 4 5 3 4 6 5 6 7 6 1 4 8 12 12 11 11 11 10 10 10 11 10 9 8 7 7 6 6 6 6 5 4 3 2 2 2
4 5 5 4 3 6 7 5 2 4 2 5 6 7 8 9 6 5 5 6 7 8 9 9 9 9 10 9 10 10 9 8 8 8 7 6 6 6 6 5 4 2 2 2
3 3 4 4 4 7 7 4 3 4 7 4 6 9 10 8 7 7 8 7 7 8 8 10 10 10 9 10 10 10 8 8 7 7 6 6 6 6 5 4 3 3 3 3
7 5 5 5 4 7 5 3 5 7 3 4 5 7 8 7 6 8 10 9 9 9 8 10 10 8 8 9 11 9 8 7 6 7 6 5 5 4 4 5 3 3 4 3
6 8 6 7 7 6 3 5 4 5 5 4 5 5 8 8 7 9 9 9 9 9 9 9 9 8 6 8 10 10 7 7 7 7 6 5 4 4 4 5 4 3 3 3
3 2 4 2 4 3 2 1 2 4 5 5 6 7 9 9 9 9 9 9 8 8 8 8 10 9 7 6 7 7 7 8 9 8 6 5 5 4 3 3 3 3 3 2
4 2 3 2 3 1 2 2 3 4 5 6 6 6 8 11 10 9 9 9 8 7 7 8 10 10 9 7 7 7 8 9 8 7 6 5 4 4 4 3 2 3 2 3
4 6 6 6 7 6 5 5 5 7 6 7 8 6 6 8 9 8 8 8 8 8 7 8 8 8 7 8 7 7 8 9 9 7 6 5 4 4 4 3 2 3 1 1
Wind_Direction
70 78 169 207 186 165 148 144 160 206 169 129 144 160 181 174 161 164 163 163 161 163 165 152 145 142 132 126 121 123 116 110 108 100 101 99 88 66 54 58 63 60 57 58
50 247 226 188 173 140 142 133 140 169 158 141 150 182 194 184 180 181 175 174 167 161 154 149 141 139 139 137 132 132 131 130 125 124 127 130 127 102 72 47 49 51 52 49
186 237 201 159 163 157 158 152 175 169 101 71 104 341 236 219 182 175 174 171 170 166 164 160 150 145 142 142 146 144 146 136 127 119 102 85 65 50 38 32 23 21 40 45
227 242 165 151 184 163 181 187 172 155 119 218 150 203 258 215 199 187 177 171 176 171 163 161 154 151 148 151 147 142 144 134 126 121 117 117 119 122 158 159 17 15 36 43
241 164 140 159 198 163 182 166 144 131 127 74 92 154 271 198 206 205 187 179 179 174 168 166 161 156 150 147 142 141 134 127 123 121 124 121 118 126 106 75 59 33 20 33
242 203 159 173 162 137 123 93 61 56 71 343 230 179 259 212 206 199 190 183 178 175 170 163 158 147 143 138 136 134 134 136 132 126 126 128 130 125 111 91 74 40 14 14
330 319 227 141 111 46 93 96 59 19 22 246 239 183 241 233 207 193 184 182 176 174 167 161 157 154 148 141 143 141 140 144 143 135 134 138 141 137 135 133 119 98 52 22
184 276 240 180 163 167 161 142 153 181 215 275 275 222 258 259 203 181 172 171 170 172 170 167 165 160 157 153 151 148 147 148 149 144 143 138 136 131 132 138 140 137 141 155
179 242 267 189 160 145 147 162 161 136 0 301 284 289 320 7 119 152 157 160 170 174 171 169 166 162 160 159 162 159 151 145 145 145 138 131 131 127 128 125 121 126 144 97
159 189 262 187 86 75 151 148 112 132 167 248 285 267 230 223 190 166 165 171 174 170 167 166 166 166 166 166 164 156 152 150 144 140 139 135 130 129 125 113 109 107 102 78
143 147 301 114 181 193 141 144 142 143 164 166 237 269 225 203 190 180 180 177 172 170 171 170 169 167 163 157 153 149 151 142 137 136 127 120 118 117 110 104 105 107 99 90
145 127 183 249 254 193 170 182 158 157 202 173 183 265 257 201 187 176 176 173 171 169 168 165 162 157 153 155 155 154 157 149 148 141 126 120 114 109 103 102 98 102 104 93
136 120 103 343 334 323 203 199 165 143 132 165 185 261 294 155 159 169 169 168 164 161 159 156 156 159 162 162 160 159 159 153 141 131 125 119 116 116 118 114 106 104 103 90
126 128 165 190 214 201 209 206 168 145 162 196 216 230 255 193 175 174 170 167 165 165 163 161 164 169 169 166 165 163 159 149 140 131 129 131 137 137 133 120 109 102 101 94
116 159 206 225 232 192 205 209 191 187 189 190 219 211 219 207 189 176 169 164 163 166 168 171 173 174 170 167 166 163 157 151 144 136 135 145 144 132 123 115 107 96 92 91
117 159 178 275 266 238 245 237 211 209 203 206 213 234 228 196 164 161 166 167 170 175 178 178 177 174 173 173 170 163 161 157 146 145 149 148 139 129 127 127 116 100 92 85
147 143 144 257 291 356 269 238 218 207 200 189 210 227 192 164 175 179 177 175 177 179 179 179 180 178 177 176 169 167 166 156 150 152 153 152 149 142 142 135 117 112 108 94
147 140 145 190 36 239 249 253 203 193 217 206 202 196 179 180 182 178 173 173 176 177 175 175 173 173 174 169 164 161 155 153 154 157 162 161 154 150 141 128 129 131 117 113
154 145 138 147 197 270 286 273 185 170 241 220 189 182 162 142 104 100 194 179 178 177 173 172 169 164 160 162 162 155 154 155 157 167 174 170 160 152 145 146 158 159 132 119
97 117 131 144 175 229 249 262 209 121 248 252 181 164 149 133 147 216 203 173 166 161 159 157 151 144 151 159 152 150 157 160 170 176 175 167 158 154 158 166 165 149 138 141
108 98 146 171 210 253 254 258 103 150 227 226 177 163 157 166 184 181 161 152 148 149 149 147 147 150 158 156 148 150 157 172 178 167 156 152 155 158 160 155 147 138 131 117
175 170 182 164 193 247 261 136 169 210 206 163 158 158 157 151 137 140 148 145 140 136 136 143 146 149 151 150 149 153 167 171 153 144 142 148 151 152 143 134 132 130 130 121
186 188 181 186 211 241 233 201 197 160 151 157 153 150 143 135 139 144 146 145 144 143 145 144 145 142 145 152 155 161 170 154 141 135 138 140 136 128 129 136 137 125 125 135
264 162 144 198 258 262 252 168 147 148 147 146 144 142 141 142 146 145 145 144 144 144 148 146 144 147 153 158 154 156 153 145 138 140 141 137 132 127 123 128 138 140 153 159
221 152 141 204 247 316 306 208 164 127 119 116 119 133 146 141 143 147 149 151 152 150 150 150 155 159 162 157 150 150 148 143 140 142 144 143 142 142 134 126 140 160 190 187
209 177 175 210 213 185 216 218 167 142 143 140 131 122 135 145 148 147 153 156 154 154 150 150 153 156 156 150 149 150 149 147 145 146 150 150 146 140 134 125 72 26 57 208
Height
1520 1525 1529 1526 1525 1526 1527 1532 1535 1532 1527 1530 1534 1535 1534 1535 1537 1538 1539 1541 1543 1545 1547 1549 1551 1552 1554 1555 1556 1557 1558 1559 1559 1560 1560 1560 1560 1560 1560 1559 1559 1558 1557 1556
1525 1527 1521 1519 1521 1524 1528 1534 1534 1531 1527 1530 1534 1535 1534 1533 1535 1536 1538 1540 1542 1545 1547 1549 1551 1552 1553 1555 1556 1557 1558 1559 1560 1560 1561 1561 1561 1561 1560 1560 1560 1559 1558 1558
1525 1522 1517 1519 1522 1526 1529 1533 1533 1533 1531 1531 1536 1541 1536 1534 1534 1535 1537 1538 1541 1543 1546 1548 1550 1552 1553 1555 1556 1557 1558 1559 1560 1560 1561 1561 1561 1561 1561 1561 1561 1560 1560 1559
1521 1518 1518 1520 1522 1523 1531 1526 1527 1530 1537 1544 1540 1553 1541 1535 1534 1534 1536 1537 1540 1543 1545 1547 1549 1551 1553 1555 1556 1557 1558 1559 1560 1561 1561 1561 1562 1562 1562 1562 1562 1561 1561 1560
1521 1517 1519 1522 1520 1520 1524 1522 1525 1530 1537 1544 1542 1550 1544 1534 1536 1533 1533 1535 1538 1540 1543 1545 1548 1550 1552 1554 1556 1557 1558 1559 1560 1561 1561 1562 1562 1563 1563 1563 1562 1562 1562 1561
1517 1515 1516 1517 1517 1518 1520 1525 1530 1535 1542 1554 1544 1548 1546 1535 1529 1528 1529 1532 1535 1538 1541 1544 1548 1550 1552 1554 1556 1557 1558 1559 1560 1561 1562 1562 1563 1563 1563 1563 1563 1562 1562 1562
1522 1517 1515 1515 1520 1521 1523 1537 1551 1554 1559 1556 1540 1542 1538 1522 1519 1520 1524 1528 1532 1536 1540 1543 1546 1548 1551 1553 1555 1557 1558 1559 1560 1561 1562 1562 1563 1563 1563 1563 1563 1563 1562 1562
1531 1530 1517 1514 1518 1524 1526 1534 1552 1560 1561 1553 1540 1541 1529 1515 1514 1516 1520 1525 1530 1534 1538 1541 1544 1547 1550 1552 1554 1556 1557 1558 1560 1561 1561 1562 1563 1563 1563 1564 1563 1563 1563 1562
1529 1528 1514 1512 1513 1517 1526 1533 1534 1546 1549 1554 1546 1536 1524 1515 1515 1517 1521 1525 1529 1532 1536 1539 1543 1546 1549 1551 1553 1555 1556 1558 1559 1560 1561 1562 1563 1563 1564 1564 1564 1563 1563 1563
1517 1525 1517 1512 1513 1515 1519 1525 1537 1545 1554 1558 1548 1540 1534 1523 1520 1519 1520 1524 1527 1531 1535 1538 1541 1545 1548 1550 1553 1554 1556 1557 1559 1560 1561 1562 1563 1564 1564 1564 1564 1564 1564 1563
1512 1523 1522 1517 1519 1521 1522 1525 1531 1540 1543 1553 1555 1544 1518 1516 1515 1517 1518 1521 1524 1528 1532 1536 1540 1543 1547 1549 1552 1554 1556 1557 1559 1560 1561 1562 1563 1563 1564 1564 1564 1564 1564 1564
1511 1522 1528 1521 1513 1511 1515 1520 1527 1540 1543 1543 1548 1540 1509 1510 1511 1513 1517 1520 1523 1527 1531 1535 1538 1542 1545 1548 1551 1553 1555 1557 1558 1559 1561 1562 1562 1563 1563 1564 1564 1564 1564 1564
1509 1521 1533 1531 1525 1516 1516 1515 1518 1526 1535 1541 1545 1535 1509 1510 1511 1513 1515 1519 1522 1526 1530 1534 1537 1541 1544 1546 1549 1552 1554 1556 1557 1558 1560 1561 1562 1562 1563 1563 1564 1564 1564 1564
1503 1517 1526 1532 1525 1516 1516 1514 1515 1522 1534 1536 1533 1525 1515 1511 1512 1513 1515 1518 1521 1525 1528 1532 1535 1539 1542 1545 1548 1550 1553 1555 1556 1558 1559 1560 1561 1561 1562 1563 1563 1563 1563 1563
1502 1514 1514 1513 1509 1509 1510 1510 1511 1516 1520 1526 1521 1518 1512 1508 1508 1510 1513 1516 1520 1524 1527 1530 1533 1537 1540 1543 1546 1549 1551 1553 1555 1556 1558 1559 1560 1561 1562 1562 1563 1563 1563 1563
1502 1510 1511 1512 1507 1507 1509 1507 1507 1509 1510 1513 1512 1512 1503 1504 1507 1509 1512 1514 1518 1521 1524 1528 1531 1535 1538 1541 1544 1547 1549 1551 1554 1555 1556 1558 1559 1560 1560 1561 1562 1562 1562 1562
1504 1510 1516 1520 1510 1509 1515 1504 1502 1503 1501 1504 1509 1505 1501 1504 1505 1506 1509 1511 1514 1517 1521 1525 1528 1532 1535 1539 1542 1545 1547 1550 1552 1554 1555 1556 1558 1558 1559 1560 1561 1561 1561 1562
1502 1509 1517 1520 1517 1525 1508 1492 1493 1496 1497 1496 1496 1496 1496 1498 1501 1504 1506 1508 1512 1515 1519 1522 1526 1530 1534 1537 1540 1543 1546 1549 1551 1552 1554 1555 1556 1557 1558 1559 1559 1560 1560 1561
1494 1504 1516 1522 1523 1516 1501 1492 1491 1495 1498 1493 1494 1494 1495 1498 1502 1506 1506 1508 1510 1513 1516 1520 1524 1527 1532 1535 1538 1542 1544 1547 1549 1550 1552 1553 1554 1555 1556 1557 1558 1558 1559 1559
1495 1499 1512 1519 1521 1521 1503 1488 1486 1491 1500 1491 1490 1492 1494 1497 1506 1506 1505 1507 1509 1512 1516 1519 1523 1527 1530 1533 1537 1540 1542 1544 1546 1548 1550 1552 1553 1554 1555 1555 1556 1557 1558 1558
1502 1506 1511 1516 1517 1508 1491 1485 1487 1503 1499 1488 1488 1489 1491 1493 1496 1499 1502 1505 1508 1512 1515 1518 1522 1525 1528 1532 1535 1538 1540 1542 1544 1546 1548 1550 1551 1552 1553 1554 1555 1555 1556 1556
1500 1506 1510 1513 1516 1509 1484 1484 1489 1489 1484 1485 1486 1488 1490 1491 1494 1497 1500 1503 1507 1510 1514 1517 1520 1523 1527 1530 1533 1535 1538 1540 1543 1545 1546 1548 1549 1550 1551 1552 1553 1553 1554 1554
1492 1493 1495 1498 1498 1486 1482 1482 1482 1482 1483 1485 1486 1487 1489 1491 1493 1496 1500 1503 1506 1509 1513 1516 1519 1522 1526 1529 1531 1534 1536 1539 1541 1543 1544 1546 1547 1548 1549 1550 1551 1551 1552 1552
1486 1484 1488 1491 1486 1482 1481 1481 1481 1482 1483 1484 1485 1487 1488 1490 1493 1495 1499 1502 1505 1509 1512 1515 1518 1521 1524 1527 1530 1532 1535 1537 1539 1540 1542 1544 1545 1546 1547 1548 1549 1549 1549 1549
1482 1483 1486 1488 1483 1481 1481 1480 1481 1482 1483 1484 1485 1486 1488 1489 1492 1495 1498 1501 1504 1508 1511 1514 1516 1519 1522 1525 1528 1530 1533 1535 1537 1538 1540 1542 1543 1544 1545 1546 1546 1547 1547 1547
1477 1479 1483 1484 1479 1479 1479 1480 1480 1481 1482 1483 1485 1486 1488 1489 1491 1494 1497 1500 1503 1506 1509 1512 1515 1517 1520 1523 1525 1528 1531 1533 1535 1536 1538 1539 1540 1541 1542 1543 1544 1544 1545 1545